STARLINK-36970, 68071

Orbit data source: Space-Track

STARLINK-36970, 68071 is a payload satellite owned by SpaceX/Seattle (US) in LEO that was launched on Wed, 04 Mar 2026 UTC via an FALCON 9 launch vehicle from the Air Force Eastern Test Range (AFETR). Payload-class satellites include a variety of spacecraft equipped with specific instruments for various scientific and technological missions. These include communications satellites like Starlink; space stations such as the ISS; scientific satellites like the Hubble; Earth observation satellites from companies like Planet Labs, Umbra, and HawkEye 360; GPS; miniature CubeSats for education and research; and military/defense satellites.

Loading next visibility...
Identifier
68071, 2026-042C
Orbit
LEO
Country
Flag of USUS
Related business
Manufacturer
SpaceX/Seattle
Mission
Operational Commercial Communications
Bus & Motor
STARLINK V2MO, Unknown motor
Mass
575 kg wet, ~530 kg dry
Launch date (UTC)
2026-03-04 (4 months ago)
Launch vehicle
FALCON 9
Launch site
Air Force Eastern Test Range (AFETR)
Object type
Payload
Rocket body
Debris
Shape & HBR
Box + 2 Pan, 17.7 m
Radar Cross Section
36.964 m², Large (>1 m²)

Expand to show TLE details & history
Last TLE update: 22 hours ago

TLE from 22 hours ago
0 STARLINK-36970
1 68071U 26042C   26170.91419444  .00028166  00000-0  84117-3 0  9995
2 68071  53.1586  62.6700 0000971  95.1304 264.9810 15.34416497 17970
Epoch: 2026-06-19T21:56Z
TLE epoch observation values (Epoch: 2026-06-19T21:56:26.399Z)
Latitude
0.00002°
Longitude
-174.57632°
Altitude
463.614 km
Speed
7.636 km/s
True Right ascension
04h 10m 40s
True Declination
0° 00' 00"
Sunlit
Object was in daylight at epoch
Visualization orbit readout
Latitude
Unknown
Longitude
Unknown
Altitude
Unknown
Speed
Unknown
Apparent Right ascension
Unknown
Apparent Declination
Unknown
Sunlit
N/A
Visualization observer readout
Local Sidereal Time
07:18:54
Azimuth
Unknown
Elevation
Unknown
Doppler factor
Unknown
Orbital elements
Apogee altitude
463.576 km
Perigee altitude
462.247 km
Semi-major axis
6,841.048 km
Eccentricity
0.0001
Inclination
53.1586°
RAAN
62.67°
Arg. of periapsis
95.1304°
True anomaly
264.96992°
Mean anomaly
264.981°
Eccentric anomaly
264.97546°
Mean motion
3.83583 °/min
Orbital period
93.85 mins
BSTAR
0.00084117
Loading maneuver chart data...
Computing Atmospheric mass density...
Loading historical data...
Loading historical data...
Loading historical data...
Loading historical data...
Loading historical data...
Loading historical data...
Loading historical data...

Documentation

Showing up to 5 results
|